Probability
0 0 0 0 0 0 0 0 0 0 0 0 0 0 0 0 0 0 0 0 0 0 0 0 0 0 0 0 0 0 0 0 0 0 0 0 0 0 0 0 1 1 1 0
0 0 0 0 0 0 0 0 0 0 0 0 0 0 0 0 0 0 0 0 0 0 0 0 0 0 0 0 0 0 0 0 0 0 0 0 0 0 0 0 0 1 1 0
0 0 0 0 0 0 0 0 0 0 0 0 0 0 0 0 0 0 0 0 0 0 0 0 0 0 0 0 0 0 0 0 0 0 0 0 0 0 0 0 0 1 1 1
0 0 0 0 0 0 0 0 0 0 0 0 0 0 0 0 0 0 0 0 0 0 0 0 0 0 0 0 0 0 0 0 0 0 0 0 0 0 0 0 0 1 2 2
0 0 0 0 0 0 0 0 0 0 0 0 0 0 0 0 0 0 0 0 0 0 0 0 0 0 0 0 0 0 0 0 0 0 0 0 0 0 0 0 0 0 1 2
0 0 0 0 0 0 0 0 0 0 0 0 0 0 0 0 0 0 0 0 0 0 0 0 0 0 0 0 0 0 0 0 0 0 0 0 0 0 0 0 0 0 0 1
0 0 0 0 0 0 0 0 0 0 0 0 0 0 0 0 0 0 0 0 0 0 0 0 0 0 0 0 0 0 0 0 0 0 0 0 0 0 0 0 0 0 0 0
0 0 0 0 0 0 0 0 0 0 0 0 0 0 0 0 0 0 0 0 0 0 0 0 0 0 0 0 0 0 0 0 0 0 0 0 0 0 0 0 0 0 0 0
0 0 0 0 0 0 0 0 0 0 0 0 0 0 0 0 0 0 0 0 0 0 0 0 0 0 0 0 0 0 0 0 0 0 0 0 0 0 0 0 0 0 0 0
0 0 0 0 0 0 0 0 0 0 0 0 0 0 0 0 0 0 0 0 0 0 0 0 0 0 0 0 0 0 0 0 0 0 0 0 0 0 0 0 0 0 0 0
0 0 0 0 0 0 0 0 0 0 0 0 0 0 0 0 0 0 0 0 0 0 0 0 0 0 0 0 0 0 0 0 0 0 0 0 0 0 0 0 0 0 0 0
0 0 0 0 0 0 0 0 0 0 0 0 0 0 0 0 0 0 0 0 0 0 0 0 0 0 0 0 0 0 0 0 0 0 0 0 0 0 0 0 0 0 0 0
0 0 0 0 0 0 0 0 0 0 0 0 0 0 0 0 0 0 0 0 0 0 0 0 0 0 0 0 0 0 0 0 0 0 0 0 0 0 0 0 0 0 0 0
0 0 0 0 0 0 0 0 0 0 0 0 0 0 0 0 0 0 0 0 0 0 0 0 0 0 0 0 0 0 0 0 0 0 0 0 0 0 0 0 0 0 0 0
0 0 0 0 0 0 0 0 0 0 0 0 0 0 0 0 0 0 0 0 0 0 0 0 0 0 0 0 0 0 0 0 0 0 0 0 0 0 0 0 0 0 0 0
0 0 0 0 0 0 0 0 0 0 0 0 0 0 0 0 0 0 0 0 0 0 0 0 0 0 0 0 0 0 0 0 0 0 0 0 0 0 0 0 0 0 0 0
0 0 0 0 0 0 0 0 0 0 0 0 0 0 0 0 0 0 0 0 0 0 0 0 0 0 0 0 0 0 0 0 0 0 0 0 0 0 0 0 0 0 0 0
0 0 0 0 0 0 0 0 0 0 0 0 0 0 0 0 0 0 0 0 0 0 0 0 0 0 0 0 0 0 0 0 0 0 0 0 0 0 0 0 0 0 0 0
0 0 0 0 0 0 0 0 0 0 0 0 0 0 0 0 0 0 0 0 0 0 0 0 0 0 0 0 0 0 0 0 0 0 0 0 0 0 0 0 0 0 0 0
0 0 0 0 0 0 0 0 0 0 0 0 0 0 0 0 0 0 0 0 0 0 0 0 0 0 0 0 0 0 0 0 0 0 0 0 0 0 0 0 0 0 0 0
0 0 0 0 0 0 0 0 0 0 0 0 0 0 0 0 0 0 0 0 0 0 0 0 0 0 0 0 0 0 0 0 0 0 0 0 0 0 0 0 0 0 0 0
0 0 0 0 0 0 0 0 0 0 0 0 0 0 0 0 0 0 0 0 0 0 0 0 0 0 0 0 0 0 0 0 0 0 0 0 0 0 0 0 0 0 0 0
0 0 0 0 0 0 0 0 0 0 0 0 0 0 0 0 0 0 0 0 0 0 0 0 0 0 0 0 0 0 0 0 0 0 0 0 0 0 0 0 0 0 0 0
0 0 0 0 0 0 0 0 0 0 0 0 0 0 0 0 0 0 0 0 0 0 0 0 0 0 0 0 0 0 0 0 0 0 0 0 0 0 0 0 0 0 0 0
0 0 0 0 0 0 0 0 0 0 0 0 0 0 0 0 0 0 0 0 0 0 0 0 0 0 0 0 0 0 0 0 0 0 0 0 0 0 0 0 0 0 0 0
0 0 0 0 0 0 0 0 0 0 0 0 0 0 0 0 0 0 0 0 0 0 0 0 0 0 0 0 0 0 0 0 0 0 0 0 0 0 0 0 0 0 0 0
Wind_Speed
6 7 3 2 1 1 3 3 1 2 2 1 2 5 6 3 1 3 3 3 3 4 3 2 1 2 2 3 2 2 1 1 1 0 0 0 1 1 1 2 3 3 3 3
6 4 3 1 2 4 3 2 1 2 2 1 2 6 5 3 3 3 4 4 4 3 3 2 2 1 1 2 2 1 1 1 1 1 1 1 1 0 1 1 2 3 3 2
5 1 2 2 4 4 3 1 1 1 3 3 3 6 3 2 1 2 2 2 2 3 3 2 2 2 2 2 2 1 1 1 1 0 1 1 1 1 1 2 2 2 2 2
3 3 2 3 3 2 0 1 1 1 2 3 3 4 5 3 3 3 3 3 3 4 3 2 2 2 2 3 2 1 1 1 1 1 1 2 1 1 1 0 1 1 2 2
2 2 3 2 1 1 1 0 1 1 1 2 2 1 8 2 3 5 5 4 4 4 4 3 3 3 2 2 1 1 1 1 1 0 1 2 1 1 0 0 1 1 2 2
0 0 1 0 1 1 1 2 3 3 3 2 1 1 8 4 5 4 4 3 3 3 3 3 2 1 1 2 2 1 0 1 1 0 1 2 2 1 0 0 1 1 1 1
3 2 2 1 2 3 3 4 4 5 4 4 1 2 10 6 4 4 4 4 3 2 2 2 2 2 2 2 2 1 1 1 1 1 1 2 2 2 2 2 1 1 0 1
1 2 2 1 1 2 0 3 5 3 3 5 2 6 9 4 3 3 3 3 2 2 2 2 3 3 3 3 2 2 1 2 1 1 1 1 1 1 2 2 1 1 1 1
3 2 1 1 0 3 3 2 2 5 2 2 6 7 9 2 2 2 2 2 3 3 3 3 3 2 2 3 3 3 2 2 2 1 1 1 1 2 2 1 1 1 1 0
4 1 2 1 2 3 2 5 4 4 2 3 7 5 6 4 4 3 3 4 5 4 4 3 3 3 3 3 3 2 2 3 2 2 1 1 1 2 2 1 1 1 1 1
2 3 1 1 2 3 2 3 4 3 3 4 4 9 6 6 5 5 6 5 5 5 5 4 3 3 3 2 2 2 3 3 2 2 1 1 1 1 1 2 2 2 1 1
2 4 1 3 1 1 2 4 5 3 3 3 3 11 3 4 4 4 5 5 4 4 4 4 3 2 2 3 3 3 3 3 3 2 2 2 2 1 1 2 2 2 2 2
3 5 2 4 2 1 2 3 3 3 4 4 4 11 2 1 2 3 5 5 4 4 3 3 3 3 3 3 3 3 3 3 3 2 2 2 2 2 2 3 2 2 2 2
4 3 5 6 4 4 4 4 5 5 4 5 10 12 9 6 6 6 5 5 4 4 4 4 4 4 4 4 4 4 4 3 2 2 3 3 3 3 3 3 2 2 2 2
4 2 3 3 2 2 5 7 8 10 10 10 10 10 15 9 7 7 6 5 4 5 5 5 5 5 4 4 4 4 4 3 3 3 3 5 4 3 3 2 3 2 2 3
3 3 1 3 1 2 6 9 11 11 10 12 11 16 13 8 5 6 6 6 6 7 7 6 6 6 6 5 5 4 4 3 3 4 5 4 3 3 3 3 3 2 2 2
4 5 2 3 4 4 10 12 14 9 10 11 15 16 6 5 7 8 7 7 8 8 7 7 7 7 7 6 5 5 5 3 3 4 3 3 3 3 3 3 2 3 2 2
6 5 3 0 3 7 9 2 8 9 10 12 11 10 8 8 7 7 7 8 9 8 7 7 6 6 5 4 4 3 2 2 3 3 3 3 3 3 3 3 3 3 2 2
4 7 4 3 3 12 11 4 7 8 10 12 16 15 10 5 5 7 7 8 9 8 7 6 6 5 4 4 4 3 2 2 3 4 4 4 4 4 3 3 4 3 2 2
3 4 5 4 4 10 8 2 4 3 8 7 12 13 7 3 3 7 4 4 5 5 4 4 3 3 3 3 3 3 4 3 5 5 4 4 4 4 4 5 4 3 3 3
4 3 5 6 7 14 9 4 6 5 9 3 8 9 8 9 9 5 2 3 4 4 4 3 3 3 4 3 4 4 4 5 5 3 3 3 3 4 4 3 2 2 2 2
12 10 9 7 7 16 7 10 12 11 3 2 5 6 8 8 6 5 4 4 4 3 3 3 2 3 2 3 4 4 5 5 3 2 3 3 3 3 3 3 2 2 2 2
12 13 11 15 14 6 10 11 8 3 4 4 5 6 6 6 6 6 5 5 4 4 4 3 3 3 3 3 4 5 5 3 2 2 3 3 3 3 3 3 3 2 2 3
7 4 5 8 13 9 9 10 8 7 8 6 5 4 5 7 7 6 6 5 5 5 4 3 3 4 4 3 4 5 3 2 3 3 3 3 3 2 2 2 3 3 3 4
10 9 7 10 10 7 10 13 13 11 8 7 7 6 7 7 8 8 7 6 6 5 4 3 4 5 6 4 4 4 3 3 3 3 3 2 3 3 2 3 3 4 4 5
10 13 13 13 10 9 8 6 8 9 9 9 8 7 6 7 9 7 7 6 5 5 4 4 5 5 5 4 4 4 3 4 4 3 3 3 2 2 2 2 2 5 6 6
Wind_Direction
23 58 46 319 328 112 130 136 168 273 336 22 265 276 281 281 260 257 261 259 255 262 275 302 349 343 358 349 333 300 324 314 302 177 143 105 34 11 18 29 29 23 19 20
48 36 308 298 66 75 85 99 32 317 357 13 305 290 277 259 236 236 239 246 255 271 304 320 343 346 348 322 298 277 302 289 248 217 182 159 130 35 5 14 27 24 24 24
100 296 317 75 63 68 44 136 216 284 341 25 347 313 294 297 274 278 255 247 254 244 259 287 300 287 298 296 292 274 269 293 273 174 99 78 70 46 6 3 9 9 14 25
65 345 33 65 51 65 14 300 153 59 39 340 28 310 294 298 310 288 269 261 259 259 255 262 275 287 283 279 290 282 280 314 338 178 139 132 148 189 258 297 341 359 15 18
35 11 42 57 346 78 165 52 97 75 80 3 16 303 290 326 292 274 262 253 254 253 245 249 252 259 275 293 300 297 327 335 354 273 177 157 171 202 216 353 0 10 8 6
84 18 57 148 324 112 155 64 62 50 58 342 270 192 283 249 236 262 267 255 251 251 249 255 266 280 299 322 317 335 348 302 329 109 179 172 182 181 147 316 327 342 351 359
9 17 11 30 58 23 53 78 34 7 6 266 258 232 255 257 241 233 248 257 258 245 239 266 283 286 286 288 281 280 275 288 297 247 213 198 200 195 200 212 225 258 338 344
85 310 331 9 126 151 112 119 139 188 247 289 307 245 256 262 268 256 252 260 260 248 238 244 247 247 259 266 265 255 245 257 267 244 237 231 210 201 208 203 199 209 223 249
150 250 340 14 353 125 120 120 129 121 83 306 278 281 296 259 276 269 259 267 262 254 248 246 250 246 253 263 261 248 243 251 250 232 209 215 209 201 202 197 182 192 222 224
142 161 314 321 70 24 109 137 102 115 127 290 296 277 258 255 247 256 255 251 256 256 256 253 250 253 257 255 260 261 246 247 250 235 219 210 215 208 200 183 192 202 223 202
122 127 323 14 188 188 122 116 112 115 150 165 279 274 227 219 218 225 242 247 248 248 248 247 248 252 254 260 258 253 250 252 253 240 224 220 229 206 190 198 216 216 215 199
118 114 227 253 245 229 183 172 154 157 221 196 223 268 261 224 226 228 248 259 258 252 249 247 247 251 253 254 255 253 251 248 249 238 219 221 226 212 203 216 223 214 220 213
138 114 58 349 335 314 248 202 178 135 128 170 203 264 297 296 275 253 252 262 266 263 259 256 249 245 247 248 252 252 248 245 248 234 223 229 231 221 224 230 227 218 220 225
115 131 174 204 227 190 215 207 178 154 178 214 228 256 281 281 277 275 268 263 262 258 254 250 250 248 248 245 243 246 252 246 244 231 228 234 232 228 228 229 226 226 222 227
116 172 224 257 279 238 230 221 197 203 207 213 240 246 262 261 257 262 258 256 256 258 254 248 246 248 248 249 248 245 248 245 234 225 229 236 235 227 224 224 224 225 225 232
121 145 109 295 319 278 267 242 218 224 228 239 260 269 262 262 252 252 250 245 250 253 250 248 245 246 246 244 244 244 248 244 223 224 233 233 223 217 219 223 219 221 233 235
143 131 129 275 319 344 273 231 201 205 211 201 225 244 255 254 247 242 243 241 242 247 244 240 238 238 241 238 231 231 234 228 215 229 233 215 207 212 218 214 211 216 220 215
141 131 134 195 26 250 247 179 187 208 231 217 235 251 247 244 259 254 238 233 243 240 237 238 237 241 241 232 227 226 220 210 216 228 230 219 207 218 217 202 209 219 210 213
145 138 130 138 241 276 287 225 176 193 260 221 227 246 254 268 299 277 240 222 229 232 234 234 231 230 233 227 217 202 214 209 217 230 230 223 209 211 210 210 218 215 205 220
77 105 125 145 197 247 253 181 163 129 280 236 205 229 231 173 251 264 239 220 233 239 237 236 236 226 229 229 188 189 213 214 227 231 230 221 207 207 214 219 219 207 204 222
146 147 168 181 227 261 249 159 138 178 247 224 191 209 193 200 222 244 245 242 241 244 240 228 221 222 228 208 178 201 214 227 233 226 222 219 212 213 219 219 209 199 203 216
174 172 185 165 208 251 194 152 190 218 234 196 199 204 205 222 245 259 258 254 255 260 253 226 224 242 234 195 187 212 229 235 220 208 215 222 219 215 210 206 211 194 191 208
201 192 185 194 215 239 176 201 219 214 227 225 216 219 210 226 240 247 248 249 251 245 244 233 224 243 246 210 197 219 239 221 199 201 219 227 223 217 206 200 206 201 197 211
230 202 194 241 255 247 233 244 250 233 235 243 237 231 212 227 239 244 246 249 250 249 241 234 222 235 250 232 218 227 235 210 197 213 224 217 212 219 210 208 206 207 213 217
200 173 198 244 264 283 256 234 239 240 239 246 246 234 227 229 241 240 245 245 244 246 242 226 222 233 245 241 235 231 216 197 207 219 223 218 212 213 216 219 220 221 225 218
183 180 188 224 213 208 237 225 213 217 230 232 234 245 235 222 236 240 241 243 239 239 236 233 233 236 242 238 244 236 208 196 199 214 220 216 214 215 215 227 260 247 242 250